Theta_e
352 346 335 337 337 335 331 332 339 341 342 342 341 341 340 340 339 339 337 325 315 315 315 315 315 315 315 315 317 318 319 319 320 321 321 320 321 325 330 333 333 333 334 334 333 331 330 329 329 331 332 332 332 332 332 332 332 329 326 324 325 325 325 325 324 323 322 321 320 321 324 327 330 331 331 332 332 332 332 329 327 326 328 329 328
349 348 338 337 338 334 331 334 340 342 341 342 341 341 340 340 340 338 338 327 315 314 315 315 316 315 314 315 317 319 319 320 320 320 320 320 323 328 332 333 334 333 334 334 333 331 329 328 328 331 332 333 333 332 332 331 329 326 325 327 329 330 330 331 331 329 328 325 323 320 320 322 325 328 329 329 330 330 329 326 324 323 325 326 325
345 347 340 337 338 333 331 336 340 342 341 342 341 341 340 340 340 338 338 329 316 314 315 316 315 315 314 316 318 319 319 320 321 320 319 321 326 330 332 333 333 333 333 334 333 331 329 326 326 328 331 332 332 332 330 329 328 328 330 332 332 332 332 333 334 334 333 331 329 323 320 321 322 324 326 327 326 325 323 321 320 320 324 325 322
344 345 340 337 337 332 332 337 340 341 341 341 341 341 341 340 340 339 337 330 319 315 315 315 315 314 315 316 318 319 319 320 321 319 319 322 327 330 331 332 333 333 333 333 333 332 329 324 322 324 328 331 332 331 329 328 328 330 331 333 333 332 333 334 334 335 334 334 333 328 321 316 317 318 319 321 321 319 316 314 315 315 319 319 313
345 344 338 337 336 331 332 337 340 341 341 341 341 341 341 340 340 339 337 331 323 317 315 315 315 315 315 317 318 319 319 321 320 319 320 323 327 330 331 332 333 333 333 333 333 333 330 324 320 321 326 330 331 329 327 328 329 330 331 332 332 333 333 334 334 335 334 334 335 333 325 313 311 310 309 310 312 311 310 310 309 307 309 309 306
346 345 338 336 336 331 332 336 338 340 341 341 341 341 341 341 340 340 338 332 325 321 317 315 315 315 316 318 319 319 320 321 320 319 320 324 328 331 332 332 333 333 333 332 332 333 331 327 320 319 324 327 329 328 328 328 329 330 331 331 332 333 333 334 333 333 333 334 334 334 329 314 307 307 305 305 305 307 307 307 305 306 306 304 305
346 345 339 336 335 331 332 334 336 339 340 341 341 341 340 341 340 340 339 333 327 324 320 316 315 315 316 318 318 318 320 320 320 318 320 325 329 331 333 333 334 334 333 333 333 333 332 330 324 319 320 325 327 327 327 328 329 330 330 330 332 333 333 333 333 333 333 334 334 334 329 314 306 305 304 305 306 307 306 305 309 311 308 307 311
346 345 339 336 335 331 331 332 334 336 338 340 339 340 340 340 340 340 340 336 328 325 323 318 315 315 316 317 318 319 320 320 320 317 319 325 329 332 333 333 333 334 334 334 334 334 333 331 328 323 319 321 325 326 326 328 328 327 327 329 331 332 332 332 333 332 332 333 333 331 323 309 305 305 305 308 311 314 310 307 309 311 311 315 318
348 345 339 336 334 332 331 331 331 332 336 338 339 339 339 340 340 340 340 338 332 326 324 321 317 315 316 317 317 319 320 320 320 317 317 323 327 331 332 332 333 333 334 334 334 334 333 331 330 327 322 320 321 323 325 326 325 325 326 328 330 331 332 333 333 332 330 328 327 323 313 306 306 305 305 307 313 315 312 310 312 316 317 318 318
348 345 341 339 334 332 331 331 330 331 333 336 337 337 338 338 339 340 339 340 336 329 324 321 318 315 316 316 317 319 320 320 319 316 316 320 325 328 330 331 332 332 333 333 334 334 333 332 330 328 325 321 318 318 321 322 323 323 324 327 330 332 333 334 333 332 328 322 319 315 308 307 306 307 311 312 312 310 312 316 318 320 319 318 318
347 343 343 341 333 333 331 330 330 330 332 333 335 334 334 336 338 339 339 340 338 332 326 321 318 316 315 316 317 319 320 320 319 315 314 317 321 325 327 329 331 331 332 332 334 334 334 332 330 329 327 323 318 315 316 319 322 323 324 327 331 333 334 334 333 331 328 322 315 309 307 307 307 314 317 315 315 314 317 320 320 319 318 320 320
346 342 344 342 334 333 332 331 330 330 330 330 331 331 330 331 334 336 338 340 339 336 330 323 318 316 315 315 317 319 320 320 319 314 312 314 317 320 323 326 329 330 332 333 333 333 332 331 330 329 328 324 318 314 313 316 319 321 323 326 330 333 334 334 333 331 327 321 312 308 307 307 312 316 316 318 319 319 321 320 319 316 315 320 318
345 344 345 342 336 333 332 331 331 330 330 329 329 328 328 328 329 332 336 339 340 338 334 327 319 316 315 315 317 319 319 320 319 314 312 313 314 316 318 321 325 328 331 332 331 331 330 329 329 330 329 326 320 315 315 315 317 321 325 328 331 333 334 333 333 331 325 316 310 307 307 309 313 313 315 321 318 316 320 319 317 316 318 317 312
344 344 345 343 337 332 332 332 331 331 330 330 329 328 328 326 327 329 334 338 340 339 337 332 321 315 315 315 317 319 319 320 319 315 313 313 313 314 315 318 320 324 329 329 330 330 329 329 329 329 329 327 323 320 319 320 322 326 329 331 333 333 334 334 332 331 324 314 309 307 308 310 313 316 317 317 315 316 320 318 318 319 318 310 309
344 344 345 345 339 332 332 332 332 332 331 331 329 328 327 325 325 327 332 337 339 339 338 335 325 316 315 315 316 319 319 319 320 315 313 313 313 313 314 316 317 321 325 328 329 328 327 328 328 329 329 328 326 324 324 325 328 330 331 333 333 335 335 334 333 332 325 316 312 307 307 311 315 319 315 314 317 317 318 316 317 316 311 306 312
342 342 344 346 342 334 332 332 332 332 331 331 329 328 326 323 323 327 332 336 338 338 338 336 328 317 314 315 316 319 319 319 320 317 314 314 314 313 313 315 316 319 322 326 327 326 326 326 328 328 328 328 328 326 326 327 329 330 332 333 333 334 334 333 333 331 326 319 313 307 307 314 318 316 312 316 319 316 316 311 309 312 308 307 310
341 342 345 346 343 336 332 332 332 332 332 330 328 326 324 322 321 327 333 336 337 338 337 335 329 318 314 315 316 318 319 319 320 318 315 315 314 313 313 314 315 317 320 324 325 325 325 325 326 327 327 327 328 327 327 327 329 331 332 333 333 333 333 332 331 329 326 319 312 308 308 312 314 315 315 318 318 316 316 309 309 312 308 305 306
340 342 345 345 344 338 333 333 332 331 331 330 328 325 323 321 320 326 333 335 336 336 335 333 327 318 314 315 316 318 319 319 320 319 317 316 315 314 313 313 314 316 318 321 324 325 325 325 326 326 326 326 327 327 327 328 329 331 332 333 333 333 332 332 332 328 323 317 310 307 308 310 314 317 316 317 316 311 312 313 313 310 304 304 305
341 343 344 344 344 338 332 333 332 331 331 330 327 325 323 321 319 325 330 333 334 333 332 329 324 318 314 315 315 318 319 319 320 321 319 317 316 315 315 314 314 315 316 319 323 325 325 326 326 326 326 326 326 326 326 327 329 331 332 333 333 333 333 332 332 327 318 313 310 308 308 312 317 316 312 316 317 310 313 316 312 307 303 304 305
341 342 342 342 342 338 334 333 332 332 331 329 327 324 323 321 319 323 328 329 329 328 327 324 321 316 314 315 315 317 319 319 320 321 321 319 317 316 316 316 314 314 315 318 321 325 326 326 327 326 326 326 326 326 326 327 329 332 332 334 334 333 333 331 329 323 315 312 311 309 308 312 315 314 311 314 315 312 312 310 306 305 304 304 304
341 341 341 341 340 339 337 334 333 332 332 329 326 324 323 321 320 322 326 326 325 323 323 321 318 315 314 315 315 317 319 319 320 321 322 320 318 317 317 317 315 315 314 316 320 324 326 327 327 326 326 326 326 327 327 329 331 332 333 334 333 333 333 332 329 323 316 312 311 310 308 311 312 310 311 313 312 309 307 304 304 304 303 304 304
340 339 340 341 340 339 339 336 334 333 332 329 326 325 323 322 321 321 323 324 323 321 320 319 316 315 315 315 315 316 318 320 320 321 322 321 320 318 318 318 316 315 315 315 318 323 325 326 327 326 326 326 327 329 330 331 332 332 334 334 332 332 333 332 329 324 316 311 311 311 307 309 312 311 310 313 310 304 304 307 305 303 303 304 303
338 338 339 341 341 341 340 338 335 333 332 330 327 325 323 322 321 322 322 322 322 320 318 317 315 314 315 315 315 316 318 320 320 321 322 321 321 320 319 318 317 315 315 315 316 321 325 326 328 329 329 329 329 330 331 332 333 333 334 333 331 332 332 331 329 323 315 312 312 312 307 306 311 312 310 313 310 302 304 309 307 303 303 303 303
338 339 339 340 341 341 341 338 336 336 334 331 328 326 324 322 322 322 322 322 321 319 317 315 314 314 315 315 315 318 320 321 322 324 324 321 322 322 320 319 317 315 315 315 315 319 323 325 329 332 333 333 333 332 333 333 333 333 333 333 333 333 332 330 327 320 314 312 314 313 308 305 307 310 313 314 310 305 304 309 310 304 302 303 303
340 338 335 338 340 341 342 340 338 339 338 335 330 326 326 323 321 321 322 322 321 320 318 316 314 314 315 315 317 320 321 323 325 325 325 322 321 321 320 319 318 316 314 315 315 316 320 323 327 333 333 334 333 333 334 333 333 333 333 333 333 333 332 329 325 319 314 312 314 313 309 306 305 309 315 314 311 311 305 305 310 308 303 303 302
340 338 336 337 339 340 342 341 339 340 341 339 334 328 327 325 322 320 320 322 321 320 319 317 315 314 314 316 318 320 322 325 326 326 325 324 322 320 319 319 318 316 314 314 314 315 317 320 327 333 333 334 334 334 334 334 333 333 334 334 333 334 332 330 326 318 312 312 314 313 309 306 305 308 313 314 314 313 307 302 305 306 303 303 303
339 338 337 338 339 339 341 342 341 341 341 341 338 332 328 327 324 320 319 320 321 320 319 318 316 314 313 316 318 320 326 330 329 326 325 325 324 321 320 318 317 317 314 314 314 315 318 318 326 333 333 334 334 335 336 335 335 334 335 335 334 335 333 331 328 321 314 312 314 314 310 307 306 307 310 313 314 312 309 305 302 302 303 303 303
339 337 337 339 339 338 339 342 342 341 342 341 341 335 329 330 327 322 319 319 320 320 319 317 316 316 314 316 318 320 329 334 332 329 327 326 326 323 322 319 317 317 315 316 316 315 320 321 325 332 333 334 334 334 336 336 336 336 335 335 335 334 332 331 328 327 321 312 313 315 313 309 308 308 309 310 313 313 311 307 302 301 303 302 302
336 336 336 337 339 339 340 341 342 342 342 341 342 338 332 332 330 324 321 321 321 322 321 318 316 316 315 315 317 320 329 336 334 331 329 328 327 325 325 322 318 319 315 321 325 319 324 329 329 333 333 333 334 334 337 337 336 337 335 334 335 333 331 331 329 329 325 315 312 314 314 311 310 309 309 307 309 313 312 307 303 301 302 302 302
334 334 333 335 336 338 340 340 341 342 342 341 342 340 335 335 333 326 324 324 323 325 324 321 317 318 316 314 320 323 327 336 335 332 332 332 331 327 328 329 326 326 321 326 333 326 329 334 332 333 333 333 334 334 336 336 335 337 334 331 331 331 331 331 330 328 328 322 313 312 314 312 309 308 308 308 306 308 308 309 307 301 301 301 301
334 334 335 337 334 334 338 338 338 339 341 341 341 340 337 338 336 330 328 326 324 326 326 324 320 319 319 318 327 327 323 334 337 333 333 334 336 332 330 334 332 332 329 329 334 332 332 335 332 331 332 333 334 333 334 335 337 336 332 328 327 330 332 330 330 329 329 327 318 313 312 310 310 308 309 312 310 307 306 309 308 301 301 301 301
337 338 340 339 335 335 337 337 337 336 338 340 341 341 338 337 336 333 333 330 326 325 325 327 325 322 323 324 331 328 322 333 337 334 333 332 336 335 331 334 333 333 334 331 333 333 333 335 333 330 331 333 333 333 333 335 337 335 331 328 328 331 331 330 330 329 328 328 324 320 315 309 308 307 309 312 312 312 308 306 306 303 301 301 301
338 339 341 341 339 339 339 339 339 336 335 338 341 342 339 336 336 337 336 334 331 325 323 329 331 329 329 329 332 330 325 332 336 335 334 332 336 336 332 334 334 333 334 333 334 334 334 335 333 330 331 332 333 333 333 335 336 335 333 330 331 333 331 330 330 329 328 328 327 326 323 315 309 307 307 308 309 311 309 304 305 305 302 301 301
336 338 340 340 341 340 339 339 339 337 335 336 338 340 340 338 336 339 339 335 331 325 325 332 334 332 332 331 331 332 329 330 334 336 335 334 335 336 334 334 335 334 334 334 334 335 334 333 333 331 332 332 333 333 332 335 335 335 335 332 333 333 332 331 329 329 329 328 328 327 327 323 318 315 310 308 310 308 306 305 304 304 302 301 301
333 339 340 339 340 340 338 339 339 338 336 336 336 335 337 340 339 339 338 334 330 326 331 338 338 335 334 332 330 332 332 331 334 335 335 335 336 337 336 334 334 334 334 334 334 335 334 333 333 332 332 331 332 333 332 334 335 334 335 333 334 333 332 331 329 329 329 328 328 327 327 326 325 324 318 316 319 312 307 307 306 304 303 302 302
333 337 338 336 337 337 336 337 337 338 337 337 336 331 331 336 339 338 337 335 332 331 336 340 340 338 336 334 332 333 334 332 333 334 334 335 336 336 336 334 334 335 335 334 333 334 334 334 334 333 333 332 333 333 331 333 334 334 334 333 334 334 333 332 330 329 329 328 328 328 327 327 326 326 324 322 324 320 313 309 307 306 304 303 303
333 336 338 335 333 333 333 334 336 337 338 337 336 332 328 329 333 335 338 337 336 336 338 340 339 337 335 335 335 334 334 333 332 333 334 335 336 336 336 334 333 334 335 334 333 334 334 334 334 334 333 332 332 332 331 332 334 334 334 331 332 333 333 333 331 329 329 329 328 328 327 327 326 326 325 324 324 324 320 314 310 308 307 305 303
332 335 334 329 324 327 330 334 337 337 338 338 337 334 330 328 329 330 336 338 338 338 338 339 339 337 336 336 336 334 333 333 332 332 333 334 336 337 336 335 333 333 334 334 334 333 333 333 334 334 333 331 331 332 332 332 333 333 333 330 329 332 333 333 332 330 330 329 329 329 328 327 327 326 325 325 325 324 323 321 317 313 309 306 304
331 332 328 323 321 323 325 329 333 334 336 337 337 336 332 328 328 328 333 337 339 339 338 339 339 338 338 337 337 336 334 334 333 332 332 333 337 338 337 335 334 333 333 333 333 332 332 333 333 334 333 332 331 331 332 332 332 332 332 329 327 330 333 333 333 332 330 329 329 329 328 327 326 327 326 325 325 324 323 323 322 319 314 309 307
330 331 327 327 327 324 324 326 328 330 334 337 337 337 333 329 329 329 331 335 338 339 339 339 339 339 338 337 338 338 336 335 334 332 331 333 336 337 336 335 334 333 333 333 333 331 331 333 333 333 333 333 331 331 332 332 331 331 332 331 328 330 332 333 333 332 331 330 330 329 328 328 327 326 325 325 325 324 324 323 322 321 316 311 310
330 329 326 329 331 329 327 326 327 330 333 336 337 337 333 330 330 329 329 332 335 337 338 337 338 339 338 338 338 338 337 335 334 333 332 332 335 336 335 334 334 334 334 334 333 332 331 333 333 332 333 333 332 331 332 332 332 332 333 332 330 331 333 334 333 333 332 331 330 329 329 328 328 326 325 325 325 324 324 323 323 321 317 315 315
330 329 324 327 333 334 331 328 329 332 334 335 336 336 333 330 329 327 327 329 330 332 335 334 335 337 338 338 338 338 337 335 334 333 333 332 333 336 337 336 335 335 334 333 334 333 332 332 333 332 333 333 332 332 331 332 333 333 333 331 331 333 333 333 334 333 332 332 330 330 329 328 328 327 326 326 325 325 324 323 323 321 320 320 319
328 330 326 325 331 334 334 335 334 334 335 336 336 336 334 331 329 327 326 327 328 329 332 333 332 335 336 337 338 337 337 337 335 334 334 333 333 336 338 337 336 335 334 333 332 333 333 332 333 332 333 333 331 332 332 331 332 333 332 331 331 333 334 333 333 334 333 332 331 330 329 329 328 328 327 326 325 325 325 324 323 322 322 322 321
324 329 329 327 329 331 332 335 336 337 336 335 336 336 335 333 330 328 327 326 328 329 331 333 332 332 332 335 338 338 337 337 337 335 334 333 333 335 337 337 336 335 334 334 333 332 332 332 333 333 333 333 331 331 332 332 332 333 332 331 331 333 334 333 332 332 333 332 332 331 330 330 329 328 328 327 325 325 325 324 324 323 322 322 321
322 325 330 331 331 330 331 331 334 337 338 337 335 335 336 335 333 332 332 328 328 329 330 331 331 331 329 330 334 337 337 337 336 337 335 334 333 334 336 337 336 334 334 335 334 333 332 331 333 333 333 332 331 331 332 332 332 332 331 330 332 332 331 331 332 332 331 331 333 333 331 330 330 329 328 327 326 326 325 324 324 323 323 322 321
323 320 326 334 334 333 333 333 333 334 337 339 338 337 337 337 335 335 335 332 328 328 329 329 327 329 330 328 330 334 336 336 336 337 336 335 334 333 335 337 336 335 334 334 335 334 333 332 332 333 331 331 332 332 332 333 332 332 331 328 328 330 329 330 333 334 332 331 332 333 332 331 331 330 329 328 327 326 325 324 324 324 323 322 321
324 318 317 327 333 335 335 335 335 334 335 338 338 336 336 337 338 336 336 334 332 330 330 329 328 329 330 329 330 331 334 336 336 336 335 335 334 332 334 337 337 335 334 335 335 334 334 333 332 332 331 331 332 332 332 333 332 331 332 330 326 328 331 331 333 334 334 333 333 333 333 332 332 331 330 329 328 327 326 325 324 324 323 323 322
324 321 315 315 323 332 336 335 335 335 336 338 338 335 333 335 338 338 336 334 333 332 331 330 329 330 329 330 332 332 332 335 336 335 335 335 334 333 333 337 337 335 334 334 334 335 335 335 335 334 332 331 331 332 332 332 332 331 331 332 329 328 332 333 333 333 334 334 333 332 332 333 332 332 331 330 329 328 327 325 325 324 323 323 322
322 322 321 316 314 322 333 336 335 334 336 338 338 336 334 334 336 337 337 334 332 333 333 332 331 330 330 331 334 334 334 336 336 336 335 335 335 334 333 334 336 336 335 333 333 335 336 336 336 335 333 332 331 332 332 332 332 331 330 330 330 330 332 333 334 334 333 333 333 332 332 332 332 332 332 332 331 330 328 327 325 325 324 323 323
321 322 323 322 317 316 323 331 335 336 336 336 336 336 336 335 334 335 335 334 334 334 334 333 332 333 333 333 333 333 334 336 337 336 336 335 335 335 334 333 334 336 336 334 332 333 335 335 336 336 334 333 331 330 332 332 332 331 331 329 329 330 332 333 334 333 334 333 333 333 333 332 333 332 332 332 332 331 329 328 326 326 325 324 324
320 321 322 322 322 319 317 320 328 334 335 334 333 334 335 334 332 332 333 333 333 334 333 332 332 334 336 334 330 328 329 333 337 337 336 336 336 336 335 334 334 335 336 336 334 334 335 335 336 336 334 333 332 330 330 332 333 332 331 329 328 331 333 333 332 332 333 332 332 333 333 333 333 333 333 333 333 332 330 329 328 327 326 325 324
Wind_Speed
3 6 15 19 19 20 20 22 23 22 22 21 20 19 18 18 17 16 16 17 18 18 18 18 17 17 18 18 17 16 15 15 14 13 14 14 14 16 17 18 18 18 18 17 17 16 16 16 16 16 16 17 17 18 19 19 19 20 20 22 23 24 23 23 22 21 20 20 19 17 17 17 17 17 16 16 16 16 15 13 12 12 13 13 12
4 6 14 18 18 20 21 23 23 22 22 21 20 20 19 18 17 17 16 17 18 18 17 17 17 17 18 17 16 15 15 14 13 13 13 14 16 17 17 18 18 18 17 17 16 16 16 16 16 16 16 17 18 19 19 19 20 20 21 22 23 23 23 23 22 20 19 18 19 18 16 16 16 15 14 13 12 12 11 11 10 9 10 9 8
8 7 14 19 17 20 21 23 23 23 22 21 20 20 19 19 18 17 17 17 18 17 17 16 16 17 18 17 15 14 14 13 12 13 14 15 17 17 17 17 17 17 17 17 16 16 16 16 16 16 15 16 17 18 19 19 20 20 22 23 23 24 24 25 25 23 21 18 16 15 15 15 15 14 13 13 11 9 8 8 7 6 7 6 6
11 7 16 21 18 20 20 23 23 23 22 21 20 20 19 19 18 17 17 17 17 17 16 16 16 17 17 16 15 14 14 13 12 13 14 16 17 16 17 17 17 17 17 16 16 16 16 16 15 15 15 16 17 18 18 19 19 20 23 25 25 26 25 25 24 22 22 20 16 13 13 13 13 12 11 11 10 8 7 6 6 6 5 4 5
12 9 17 22 21 21 21 23 23 23 22 22 20 19 19 19 18 17 18 17 17 17 16 15 15 16 17 16 15 14 13 12 12 13 14 16 17 17 17 17 17 16 16 16 16 16 15 16 15 16 16 16 17 17 18 19 19 20 23 25 26 26 25 23 21 20 20 20 17 13 13 13 12 11 10 9 7 7 7 7 7 6 5 5 6
14 10 17 24 22 23 22 23 23 23 22 22 20 19 19 18 18 17 18 18 17 16 16 15 15 16 16 16 14 14 13 11 12 13 14 16 17 17 17 16 16 16 16 16 16 16 15 15 15 16 16 16 16 17 18 18 18 20 21 24 26 25 23 21 19 18 18 18 16 10 11 13 13 12 11 10 9 8 7 8 9 9 8 9 9
14 10 18 25 24 24 23 23 23 23 23 22 21 19 19 18 18 17 18 17 17 16 16 15 14 15 15 15 14 14 12 11 12 13 14 17 17 17 17 16 16 15 15 15 15 15 15 15 15 16 16 16 16 17 17 18 18 18 19 23 24 22 20 19 18 17 17 17 14 4 8 12 13 12 12 11 10 9 9 9 10 11 11 12 13
12 9 20 26 24 24 23 23 22 23 23 22 21 20 19 19 18 17 18 18 17 16 15 14 14 15 15 15 14 14 12 11 12 13 15 17 17 16 16 15 15 15 15 14 15 14 14 14 14 15 16 16 16 16 16 17 17 16 18 21 20 20 19 19 18 14 12 12 10 3 7 12 11 11 11 11 12 12 11 11 11 12 12 13 13
9 7 19 26 24 24 23 23 22 23 23 22 21 20 20 19 18 17 18 18 17 16 15 14 13 14 15 14 14 14 12 11 12 13 15 17 17 16 15 15 15 15 14 14 14 14 13 13 14 14 15 15 15 15 16 16 15 16 17 18 18 19 18 19 18 12 8 7 5 4 9 11 10 11 11 9 10 10 10 12 12 13 13 14 14
9 8 16 23 24 24 23 24 22 22 22 22 21 20 20 19 19 18 18 18 18 17 15 15 13 14 14 14 14 14 13 12 12 13 15 17 17 16 15 15 15 15 14 14 14 14 13 13 14 14 14 14 15 15 15 15 15 16 16 16 17 18 17 17 17 11 10 8 5 5 9 10 10 12 12 10 10 9 10 13 13 14 15 15 15
12 11 17 20 23 25 23 24 22 23 22 22 22 20 20 20 20 18 18 19 18 17 15 15 14 14 14 14 14 15 13 12 13 14 15 17 17 16 15 15 15 15 14 14 14 13 13 12 13 14 14 14 14 14 15 15 15 15 15 14 15 17 17 16 14 11 10 9 8 9 10 10 11 12 12 11 12 12 14 14 14 15 16 16 16
13 14 19 19 23 26 23 25 23 23 22 21 21 20 20 19 20 19 19 19 19 18 16 15 14 14 15 14 14 15 13 13 14 14 15 16 17 16 15 15 15 15 14 14 13 13 13 12 13 13 14 14 15 15 15 16 15 14 13 12 13 16 18 16 12 10 8 8 10 11 10 9 10 12 12 13 13 14 15 14 14 15 15 16 15
13 16 20 18 22 28 24 25 24 23 22 21 21 20 19 19 20 20 20 20 20 19 16 15 14 14 15 15 15 15 13 13 14 14 15 16 16 16 15 15 14 14 14 14 13 13 13 13 13 13 14 14 15 16 16 16 15 14 13 12 12 14 16 15 9 8 8 8 11 10 9 9 11 11 12 13 13 14 15 14 14 15 15 14 15
11 15 20 18 21 27 25 24 24 23 22 21 21 20 19 19 20 20 20 20 20 19 17 15 14 14 15 15 15 15 14 13 14 14 15 15 16 16 15 15 14 14 13 13 13 13 13 13 13 13 13 14 15 16 15 15 15 14 14 12 12 13 16 15 9 9 10 9 10 9 8 9 11 11 12 13 13 13 14 13 15 16 14 14 15
11 15 20 19 20 26 26 24 24 22 22 21 20 20 19 19 20 21 21 21 21 20 18 16 15 15 15 16 16 15 14 14 15 14 15 15 15 15 15 14 14 13 13 13 13 13 13 13 13 13 13 13 14 15 15 15 14 14 13 12 12 14 16 15 11 11 10 8 9 9 9 10 11 12 12 13 13 13 13 14 15 14 14 14 14
15 18 21 21 20 26 28 25 25 23 22 21 20 20 20 20 21 22 22 22 22 21 19 17 15 15 16 16 17 16 15 14 15 15 15 14 14 15 15 14 14 13 13 12 12 12 13 13 13 13 13 13 13 14 14 14 13 13 13 13 13 14 15 15 11 9 9 8 9 9 8 10 12 12 12 12 13 13 13 13 14 13 14 14 13
17 19 22 23 21 26 29 27 26 23 22 20 20 20 20 20 21 22 23 23 22 21 20 18 16 16 16 17 18 17 15 15 15 15 15 14 14 15 15 14 13 13 12 12 12 12 12 12 12 12 12 13 13 13 13 13 13 13 13 13 12 13 14 14 8 5 4 6 8 8 7 9 11 11 12 12 12 13 13 13 13 13 14 14 14
19 17 17 21 22 26 29 29 27 25 23 21 20 19 20 20 21 23 23 23 22 21 20 19 18 17 17 17 18 18 16 15 16 16 15 15 14 15 15 14 13 13 12 12 11 11 12 12 12 12 12 12 13 13 12 13 13 13 13 13 13 13 16 14 5 2 2 5 6 6 7 9 9 10 11 11 12 12 12 12 13 13 14 14 13
19 16 12 14 18 26 30 28 28 26 25 23 22 20 20 20 21 23 23 23 23 22 21 20 19 17 17 18 19 19 16 15 16 16 15 15 14 14 14 14 13 12 12 11 11 11 11 11 11 12 12 12 13 13 12 13 14 14 14 13 13 14 15 12 4 2 5 7 7 5 8 9 9 10 10 11 11 11 12 12 13 13 13 13 12
19 15 14 12 12 22 28 28 28 27 25 24 23 22 21 20 21 23 23 23 23 22 21 20 19 18 18 19 20 20 18 16 16 16 15 15 14 14 14 13 13 12 12 11 10 11 10 10 11 12 13 13 13 13 13 13 13 13 13 13 12 13 13 7 2 1 4 7 6 6 8 9 10 10 9 10 11 11 12 12 13 13 12 12 11
18 14 16 16 14 20 25 27 27 26 26 24 24 24 23 21 21 23 23 23 22 22 21 20 20 19 19 20 21 22 20 17 17 16 16 15 14 14 13 13 12 12 11 11 10 10 10 10 11 12 13 13 12 13 13 13 12 11 12 12 11 13 12 5 1 2 5 7 6 6 8 8 9 9 9 10 11 11 11 11 12 12 12 12 11
20 17 17 18 19 23 25 25 27 27 26 25 25 26 24 24 23 24 25 23 23 22 22 21 21 20 21 22 22 23 21 18 17 16 16 15 14 14 13 12 12 12 11 11 10 10 10 10 11 12 13 13 12 12 12 11 10 10 10 11 11 13 10 2 2 3 6 7 6 6 8 8 9 9 9 10 10 11 10 11 12 12 12 12 11
22 21 18 19 21 26 26 25 28 28 27 27 26 27 27 26 25 25 26 25 24 24 23 23 22 22 23 24 24 23 21 19 17 16 16 15 14 14 13 13 12 12 11 11 10 10 10 10 10 11 11 12 12 12 11 10 9 9 10 10 12 13 8 2 3 3 5 6 5 6 8 8 9 9 9 10 10 11 10 10 12 12 12 12 11
21 22 20 20 23 28 27 24 27 28 27 28 28 29 29 28 27 27 27 26 26 25 24 24 23 24 25 25 25 23 21 19 17 16 16 16 15 15 14 13 13 12 12 11 11 10 10 10 9 8 8 8 9 10 9 8 8 7 9 9 11 12 6 3 2 3 5 5 5 6 8 8 9 9 9 10 10 10 10 10 11 12 12 11 11
19 21 22 24 26 29 29 26 26 28 28 28 30 31 31 30 30 28 28 28 27 26 25 24 24 25 25 25 26 24 21 19 18 18 16 16 16 16 15 15 14 13 12 12 11 11 11 10 8 7 7 7 7 7 6 6 7 7 8 8 9 9 6 5 2 4 4 4 5 6 8 8 8 9 8 9 9 9 10 10 10 11 11 11 10
21 23 27 30 29 29 32 30 27 30 29 27 28 31 33 32 32 30 30 29 28 28 27 26 25 25 26 25 26 24 21 20 20 20 18 16 17 17 16 15 15 14 13 13 12 12 11 9 7 6 6 6 7 6 5 5 6 8 9 7 6 6 5 4 1 4 4 3 4 6 8 8 8 8 7 8 9 8 9 9 9 10 9 10 9
24 25 30 34 32 32 34 33 31 31 30 28 27 29 32 32 32 32 31 31 30 30 29 28 26 26 26 25 27 25 21 21 20 20 19 18 18 18 17 17 16 15 14 13 13 13 11 10 8 6 6 6 7 6 5 5 6 8 8 7 7 6 3 3 2 5 3 3 4 5 7 8 7 8 7 7 8 8 9 9 9 9 8 9 9
24 25 29 33 33 32 34 35 33 33 31 29 27 27 30 31 31 32 31 31 31 31 31 30 28 27 26 26 28 26 23 22 21 20 20 19 19 18 18 18 17 16 15 14 13 13 12 10 8 6 5 6 6 5 5 5 6 7 7 8 8 6 3 1 2 2 1 3 4 4 5 7 7 6 7 7 7 7 7 8 8 8 7 8 8
22 24 26 28 28 29 30 32 32 34 32 29 27 25 28 29 30 32 31 31 31 31 31 30 29 28 27 27 28 27 25 24 21 20 21 20 18 18 19 19 18 17 15 15 14 13 12 10 7 5 4 6 7 6 7 7 7 7 7 8 8 6 7 2 4 4 1 4 4 4 4 6 7 5 5 6 8 7 5 7 8 7 7 7 8
22 24 25 25 27 28 28 28 29 32 31 29 27 25 28 29 29 32 31 31 31 30 29 29 30 28 27 28 29 28 26 25 22 20 22 20 17 18 19 19 17 17 16 16 17 14 13 13 10 9 8 9 10 10 9 8 8 8 7 6 7 9 10 5 1 4 3 2 1 3 3 5 6 5 4 5 7 7 6 7 7 7 7 7 7
19 22 25 26 27 29 29 28 27 27 28 28 27 24 27 29 27 30 31 31 31 29 28 27 28 27 27 28 29 29 27 25 22 21 22 21 19 18 20 20 18 17 16 17 19 15 14 15 14 14 13 12 12 11 9 8 9 9 8 6 6 11 12 8 7 9 6 3 1 3 4 5 6 5 5 5 6 6 7 6 5 6 7 6 6
15 19 23 25 27 30 30 29 28 25 24 24 24 22 25 28 26 26 28 30 30 29 29 27 27 27 26 28 29 29 27 26 22 21 21 23 22 20 21 22 19 19 18 17 19 17 16 16 15 15 13 13 12 11 9 10 10 8 7 7 7 11 12 11 9 10 7 5 2 2 3 5 5 5 5 5 5 5 6 6 5 6 6 5 5
12 18 23 25 29 32 31 29 27 24 24 23 23 22 22 24 24 24 25 28 29 29 30 28 28 28 26 28 29 28 27 28 25 22 21 23 25 23 21 23 20 20 21 19 18 18 20 17 15 15 14 15 14 12 10 10 11 9 8 8 8 10 11 11 10 10 8 7 5 2 2 4 6 5 5 5 4 4 4 4 4 5 5 4 4
12 15 18 25 31 31 30 29 25 24 26 24 22 20 18 20 24 25 25 27 28 29 30 29 29 28 27 28 28 26 25 28 27 24 21 23 26 24 22 24 22 20 22 22 19 19 21 18 17 17 16 17 16 15 14 12 12 11 10 9 10 12 11 11 10 8 8 6 6 5 2 3 5 6 6 6 6 4 2 3 4 4 3 4 3
12 10 9 16 22 23 25 25 25 25 26 25 23 21 18 20 23 26 27 28 29 31 32 30 29 28 27 27 28 26 24 26 28 26 23 23 26 25 24 24 23 20 21 23 22 20 21 19 18 19 18 17 16 17 16 14 12 11 11 11 12 13 13 12 10 7 8 6 5 7 4 3 2 4 4 4 7 6 3 2 3 4 3 2 2
11 11 9 11 14 13 17 22 25 25 25 26 25 24 23 20 20 24 28 29 30 31 33 33 31 29 28 27 27 27 25 25 27 27 25 24 27 28 27 24 24 23 21 23 23 21 20 20 19 19 19 18 16 16 17 16 13 12 13 12 13 14 13 12 11 10 10 8 5 4 3 4 4 5 3 0 5 7 5 4 1 3 3 2 2
10 11 9 8 12 12 13 20 25 24 26 28 25 24 25 23 21 21 23 25 29 31 31 32 32 30 28 27 27 28 28 26 27 28 27 26 26 29 28 25 25 26 25 23 23 23 22 21 21 20 21 19 17 16 16 17 16 16 16 14 13 13 14 13 12 12 10 9 7 5 3 4 6 6 6 4 5 6 5 5 4 1 2 2 1
10 12 12 9 10 10 9 16 23 24 26 27 25 24 25 25 22 21 22 22 27 29 28 30 31 30 28 27 28 29 29 29 29 28 28 27 26 28 28 26 26 27 29 26 23 25 23 21 22 22 22 20 18 17 17 17 18 19 17 15 14 13 14 14 12 13 11 11 10 7 6 7 7 5 7 9 8 7 6 6 6 5 2 3 2
11 11 10 7 10 11 8 11 19 23 25 26 25 23 24 25 22 21 24 24 25 26 26 28 28 29 29 28 29 29 30 31 30 29 29 28 26 26 26 25 26 27 30 30 26 26 25 22 22 23 21 20 20 18 18 18 18 19 17 16 15 13 14 14 13 13 13 12 11 9 8 9 10 6 8 11 11 9 7 6 7 8 5 4 3
11 10 7 4 8 11 11 13 16 19 23 25 26 24 23 24 22 21 23 24 23 23 23 26 25 25 26 26 27 29 31 32 32 30 29 30 28 25 24 24 26 28 29 30 29 27 26 25 24 24 22 21 21 18 19 20 17 16 15 16 15 13 12 12 13 13 14 14 12 10 9 10 10 9 11 13 12 10 9 6 6 8 6 6 2
11 9 7 4 6 9 12 15 16 18 22 25 27 27 27 28 26 23 24 22 20 19 17 21 23 22 23 24 25 27 31 32 32 32 30 31 30 24 24 24 26 30 30 30 27 23 25 26 24 25 24 23 23 19 19 20 16 16 16 15 14 13 12 11 12 13 13 14 14 12 11 10 10 11 13 12 12 12 10 4 5 7 5 5 1
10 9 6 4 6 10 12 14 16 19 23 25 27 29 30 32 28 21 22 23 21 20 17 17 19 19 22 25 25 26 29 31 32 32 31 32 31 26 25 26 26 28 30 31 28 22 24 26 26 27 26 25 25 21 19 20 20 21 19 15 13 13 12 12 11 13 14 14 15 15 13 11 11 10 13 13 13 12 11 5 3 4 4 3 5
8 10 6 3 4 8 11 14 15 18 22 24 27 30 31 33 30 20 20 23 22 22 19 17 17 17 19 23 25 25 27 29 30 31 31 32 31 30 29 29 27 27 28 30 30 28 27 27 27 28 28 26 27 24 21 23 25 23 19 16 15 14 13 14 15 15 15 15 15 16 15 14 12 11 12 14 16 13 13 8 3 6 10 11 10
7 8 8 6 7 6 9 12 14 17 21 24 25 29 31 33 32 25 21 24 25 23 20 19 18 18 19 19 22 24 25 27 28 29 31 32 32 31 31 31 28 26 27 27 29 30 30 29 29 29 29 28 28 27 23 25 27 24 20 17 13 14 14 15 17 18 16 16 15 16 18 17 14 13 13 14 17 15 14 11 7 9 14 14 12
7 6 6 6 10 9 9 10 12 16 19 22 24 26 30 32 33 31 27 27 28 26 24 23 21 20 20 21 22 24 25 26 27 28 30 32 33 32 31 31 28 26 27 27 26 27 28 31 31 31 31 29 28 27 25 26 28 24 22 18 13 13 15 13 14 17 18 18 17 16 19 19 16 15 16 16 16 15 14 12 11 12 13 13 15
11 9 4 3 7 11 11 10 12 15 18 21 23 24 28 30 33 33 32 32 33 33 32 29 25 22 21 21 23 25 25 24 25 27 29 30 33 34 31 30 29 26 27 27 25 25 27 29 31 32 31 29 27 26 26 27 28 24 22 21 15 11 12 13 13 14 16 17 17 17 18 19 18 17 17 18 16 15 15 14 14 17 17 16 18
14 14 9 5 6 8 12 13 14 16 19 21 22 22 26 31 34 35 34 34 34 34 32 28 23 22 21 21 22 24 24 25 25 26 28 27 29 33 32 31 30 28 27 27 26 26 26 26 28 29 29 29 28 27 27 27 28 27 24 22 18 11 7 11 15 14 14 16 17 18 19 19 19 19 18 18 16 16 16 16 16 19 19 17 18
14 15 13 9 8 9 10 13 16 18 20 22 23 21 23 29 33 35 35 34 32 30 28 25 23 23 23 22 22 22 23 27 27 26 28 29 28 30 32 33 31 28 28 28 27 26 26 25 25 25 26 29 31 29 27 27 29 30 28 24 21 17 11 11 13 13 13 16 18 18 19 20 20 19 18 18 17 16 17 17 18 19 18 17 17
14 14 15 13 11 10 10 11 15 19 22 24 24 22 22 26 31 34 35 33 32 30 29 27 26 26 26 23 23 23 23 27 29 28 29 31 30 29 30 33 32 29 29 28 26 27 28 27 26 26 25 27 31 31 28 28 30 30 30 29 26 22 18 14 13 12 12 15 17 18 20 21 21 21 20 19 18 17 17 16 17 19 19 20 18
14 13 14 15 14 12 11 11 13 18 23 24 22 22 23 25 28 32 34 33 32 31 28 27 27 28 29 26 23 23 23 27 32 32 30 31 32 31 29 29 31 31 29 26 25 27 29 28 28 28 26 25 28 32 31 26 27 29 28 29 30 26 22 20 16 14 14 14 14 15 18 20 22 22 22 21 19 17 18 17 15 19 21 23 19
16 14 14 15 15 14 13 12 12 16 22 22 20 21 23 25 27 29 31 32 33 32 28 28 30 31 31 28 25 25 25 28 34 35 33 32 32 32 31 28 30 33 31 27 25 25 27 27 27 28 27 25 25 29 32 27 22 26 27 27 30 28 24 23 20 16 17 17 15 14 16 19 21 21 21 21 19 18 20 20 18 17 20 23 21
Wind_Direction
212 203 186 174 168 163 160 159 154 154 151 151 149 146 143 140 137 130 124 119 124 129 131 131 129 128 126 124 120 117 116 115 112 109 105 100 101 102 102 101 99 95 92 93 94 94 93 92 92 91 91 94 96 96 93 89 88 89 90 89 87 84 81 79 77 76 76 76 75 76 80 83 82 82 81 79 79 79 78 76 76 78 77 75 73
220 229 193 179 172 166 161 160 155 156 154 153 152 149 146 143 140 133 127 122 126 131 133 134 132 131 128 125 121 120 119 117 114 110 106 104 105 104 104 101 98 94 92 93 93 93 92 93 94 93 92 94 96 96 93 90 89 90 89 85 82 80 78 76 71 68 69 70 73 75 77 81 81 80 80 80 79 78 77 75 69 67 69 62 52
214 227 191 185 175 170 163 160 158 158 157 156 156 152 149 145 143 137 131 126 128 133 134 136 135 134 130 127 124 122 122 119 116 112 108 107 107 106 103 100 97 93 92 92 93 91 89 90 94 96 95 95 97 97 93 91 92 92 87 81 78 75 74 72 67 61 57 58 61 66 72 78 77 76 75 74 75 73 69 66 56 46 51 39 20
207 209 186 188 177 173 165 161 160 160 161 160 159 155 152 147 146 141 136 131 130 134 135 138 139 136 133 130 128 126 124 121 118 113 111 110 109 107 103 100 96 93 91 91 92 90 87 85 89 97 99 97 98 96 94 95 96 93 88 82 78 72 70 69 67 61 55 53 45 34 51 71 72 70 68 70 72 66 54 43 43 44 41 19 5
204 203 185 185 178 175 167 164 162 163 163 162 161 158 156 151 150 146 141 137 134 135 136 139 140 139 135 134 132 130 127 123 119 114 114 112 110 107 103 100 96 93 90 89 90 91 88 84 83 91 99 100 100 96 97 98 97 93 88 82 77 71 66 66 65 63 58 57 51 20 25 54 58 55 51 48 46 36 29 24 30 33 33 24 17
199 202 188 184 179 175 169 167 165 165 164 164 164 162 160 155 153 150 147 143 139 138 137 141 142 142 139 138 137 134 130 127 121 117 118 114 111 108 104 100 96 93 90 90 89 90 89 86 82 86 95 101 101 98 99 100 99 93 86 82 78 71 67 66 64 67 66 64 63 23 10 36 39 43 41 35 33 27 31 32 34 37 40 41 42
199 205 187 185 180 175 171 169 167 165 165 166 166 165 163 160 158 154 152 149 145 142 140 142 144 145 142 142 142 138 133 130 124 121 121 116 112 109 106 101 97 95 91 90 88 90 90 88 85 84 90 98 101 100 101 101 99 92 86 85 82 77 74 72 65 67 73 73 77 38 358 26 30 34 35 33 38 43 53 51 52 54 50 51 61
195 207 184 186 182 176 173 171 170 167 167 168 168 168 166 164 163 160 158 154 151 147 143 144 146 148 147 146 146 142 137 134 128 125 123 117 115 111 107 104 102 99 95 91 89 89 90 92 89 87 90 96 101 101 101 101 98 92 90 92 88 85 84 81 72 67 73 87 99 65 7 23 28 35 38 38 46 54 59 58 61 63 60 64 71
181 209 183 188 184 177 175 173 173 169 169 169 170 170 169 169 167 165 163 160 156 153 149 148 149 151 152 151 149 145 142 139 130 128 125 118 117 114 111 109 105 101 98 95 92 91 91 94 93 91 91 95 100 103 103 102 99 95 95 96 91 88 86 81 76 65 56 90 117 31 16 25 34 44 48 49 55 58 55 58 66 71 74 74 72
186 211 180 192 187 179 178 175 175 172 171 170 171 172 172 172 170 170 168 165 162 159 155 153 153 155 156 155 152 149 146 142 133 131 126 120 119 117 116 112 107 101 100 97 95 94 93 95 97 96 94 95 98 103 106 104 102 99 98 96 90 85 80 77 77 67 48 66 89 38 31 36 44 56 63 65 64 66 67 70 74 76 76 76 75
200 202 178 198 188 181 181 177 177 174 172 171 172 173 173 173 173 174 172 170 167 164 161 158 157 158 161 159 157 153 150 145 136 132 126 122 121 119 118 114 110 106 103 100 97 97 97 98 100 99 98 97 98 102 108 108 106 102 99 98 92 85 78 73 76 70 52 53 53 44 43 45 53 66 69 68 68 73 76 76 78 78 78 78 77
193 184 184 207 189 184 183 178 179 175 174 172 173 174 173 174 174 175 176 174 171 170 166 164 162 161 165 164 161 157 153 147 139 136 129 123 122 120 117 114 112 110 106 103 103 102 102 102 102 102 101 99 99 103 108 111 110 106 101 99 93 87 80 74 75 72 59 44 41 42 43 48 60 67 67 68 73 77 78 77 77 78 78 80 79
182 177 196 213 192 186 184 181 180 176 175 173 174 175 174 175 175 177 179 177 174 174 170 168 166 165 169 167 166 162 157 150 143 140 133 126 123 120 117 114 111 110 107 106 105 104 103 102 103 103 103 103 102 105 109 112 110 107 101 94 87 84 81 77 69 55 47 36 40 41 38 51 61 66 70 73 75 75 78 79 78 78 79 81 81
184 188 209 217 199 188 184 184 181 178 176 175 175 175 176 178 177 177 178 178 176 176 175 172 170 169 172 171 170 167 160 152 146 144 137 130 126 123 118 114 110 109 107 106 105 103 103 102 103 104 106 106 107 110 112 113 111 106 99 91 85 79 78 76 56 25 30 36 42 41 35 51 65 69 75 75 75 77 80 81 81 82 82 83 83
185 203 220 222 209 192 187 186 183 180 178 177 178 176 178 179 177 177 177 178 177 177 178 175 173 173 175 174 173 172 165 155 149 147 141 134 130 126 122 118 113 109 107 106 105 103 102 102 104 105 107 109 111 114 115 115 113 108 99 92 88 82 77 76 59 23 27 38 44 45 39 54 73 77 77 76 78 81 81 82 83 81 81 84 84
196 211 220 221 216 197 188 187 186 183 181 179 179 177 178 179 176 176 176 176 177 178 180 178 177 176 178 177 176 176 169 159 153 150 145 139 135 130 127 124 119 114 111 108 107 104 101 102 105 106 108 110 114 116 118 118 115 110 102 95 91 87 82 80 75 50 44 37 39 43 44 63 76 78 79 80 82 81 82 84 83 80 83 85 83
201 212 218 219 221 205 191 187 187 184 183 180 179 178 176 178 175 175 176 176 179 179 180 181 180 179 180 179 179 180 173 163 155 154 150 144 140 135 132 129 125 120 116 113 111 107 102 100 101 105 108 109 114 117 118 118 115 110 103 97 91 87 84 83 92 96 65 21 27 32 45 69 74 76 81 83 85 84 82 83 83 83 85 83 82
197 209 217 220 221 209 197 189 187 184 183 180 178 178 177 178 174 176 177 176 179 180 181 182 182 181 181 181 182 181 178 167 159 159 154 150 145 139 136 133 132 126 120 118 115 113 105 99 98 103 108 110 113 115 119 117 113 108 100 95 90 85 84 82 76 64 41 26 32 33 56 74 77 81 83 81 85 85 83 85 85 85 85 82 82
191 203 208 222 221 206 201 193 188 186 183 180 178 177 178 178 175 176 177 177 179 180 181 182 183 182 182 183 183 183 180 171 163 162 160 155 150 145 141 138 137 133 127 122 119 118 109 100 97 103 110 112 113 115 116 114 110 105 98 93 90 88 89 95 103 356 22 39 33 41 71 79 81 83 82 84 88 89 88 88 87 87 87 86 84
186 198 201 211 218 205 203 197 191 189 185 180 178 177 178 177 176 177 177 179 179 179 181 182 183 183 183 184 183 183 183 177 167 166 166 160 157 152 146 143 142 139 134 129 124 121 116 106 98 103 112 113 114 117 114 111 109 104 99 94 91 88 87 96 150 294 20 41 28 47 76 79 83 84 83 88 92 93 91 90 88 89 90 88 86
178 193 207 207 206 205 207 202 194 192 188 182 179 178 177 177 177 178 179 180 180 180 181 182 184 184 183 183 185 184 184 181 172 170 170 167 163 158 153 150 147 145 141 136 131 125 122 112 101 105 113 113 114 117 117 114 111 107 102 95 89 85 88 89 354 349 30 44 31 55 76 76 83 85 86 91 93 93 93 93 91 89 89 88 88
179 190 209 213 203 200 209 206 197 195 191 185 182 179 177 178 178 179 180 181 181 180 182 184 184 184 184 184 187 185 184 184 178 174 174 174 168 164 162 158 153 150 147 143 138 131 128 118 108 111 113 112 112 115 117 114 113 109 101 96 92 85 91 123 296 351 32 42 34 64 80 76 82 85 87 93 95 96 94 96 97 94 91 90 89
184 182 196 214 203 197 208 209 199 197 195 190 186 182 180 178 179 182 182 183 182 181 184 185 185 184 185 186 186 185 185 185 182 178 180 181 174 172 171 166 162 154 152 151 147 140 133 126 120 117 115 116 116 116 116 112 110 107 103 99 93 89 98 215 290 349 33 45 44 74 89 82 78 81 89 94 98 103 98 96 100 99 95 92 89
183 180 189 208 206 201 208 212 201 197 196 193 190 185 182 180 181 184 184 184 183 184 185 186 187 185 186 187 185 184 183 183 182 184 187 184 181 181 179 176 169 160 158 158 156 151 140 134 130 123 122 124 121 122 125 117 113 110 106 104 101 105 134 231 312 20 46 46 47 80 95 89 79 80 90 94 96 105 100 94 99 100 97 92 88
186 188 196 206 209 205 209 215 204 197 196 194 194 188 183 183 183 185 186 186 185 186 187 188 189 187 188 186 184 183 182 182 181 188 192 188 188 187 185 183 175 169 165 164 164 157 150 142 129 124 130 127 118 124 133 122 122 118 109 114 118 127 173 231 325 39 56 47 48 79 95 90 86 86 92 93 94 102 100 94 92 94 94 92 87
197 199 202 205 207 205 208 214 203 196 197 194 197 192 185 185 185 186 187 186 187 188 189 190 190 189 189 185 182 182 183 186 185 191 195 193 195 192 190 189 181 178 173 172 170 163 161 149 129 122 123 118 112 117 125 129 138 129 122 130 126 130 183 250 353 68 69 63 51 75 98 96 88 86 89 94 97 99 101 102 94 88 90 92 90
211 211 207 203 202 204 207 211 203 196 196 192 196 195 189 187 187 187 187 187 187 190 192 191 191 190 189 184 181 182 183 189 191 193 196 197 199 196 196 194 188 185 181 179 174 172 173 160 146 128 118 119 118 122 130 141 142 129 127 131 131 140 183 288 61 85 68 84 72 74 100 105 94 84 89 99 101 98 101 105 97 90 88 90 91
219 220 212 206 202 207 210 209 202 195 194 191 194 195 190 189 190 189 187 188 188 191 193 191 191 189 188 183 182 183 181 189 198 194 197 202 200 199 200 200 196 190 189 188 182 181 183 174 155 134 129 132 127 129 139 150 134 130 139 138 147 150 144 289 358 31 41 106 92 82 100 109 101 84 92 110 110 102 98 107 106 98 93 90 90
229 223 213 212 206 211 217 212 202 197 194 189 193 194 189 190 193 192 189 188 189 190 191 190 191 189 186 183 183 186 180 189 204 197 196 204 203 202 202 205 201 194 194 191 195 193 184 186 168 155 168 140 147 162 160 170 154 154 166 153 160 143 128 165 318 331 106 109 90 88 99 105 101 87 93 116 119 108 98 113 118 108 101 95 91
239 227 219 222 218 220 225 215 202 197 193 190 195 193 187 189 193 194 192 190 189 188 189 190 191 188 186 182 182 188 182 186 206 201 192 198 208 206 196 201 201 195 196 187 202 207 181 189 185 173 189 172 178 192 182 177 162 167 181 167 164 131 124 148 262 288 304 25 66 99 101 107 104 98 98 118 124 118 112 114 116 108 106 101 93
245 235 228 225 225 226 226 219 211 203 195 192 196 195 186 186 192 195 194 193 192 188 188 189 190 189 188 182 181 192 186 183 204 207 193 191 208 210 187 194 201 194 197 188 200 209 184 194 190 167 186 193 192 203 192 172 171 184 189 177 156 129 131 161 206 250 281 332 259 127 110 112 107 102 100 110 113 111 112 108 110 111 108 103 95
246 246 236 224 219 221 220 215 215 215 208 199 195 195 190 188 193 197 195 194 194 191 188 186 188 189 188 184 184 194 189 182 199 210 198 188 202 212 187 190 205 194 195 196 203 207 190 198 193 169 187 199 194 207 193 172 185 197 192 175 152 141 145 168 210 243 270 313 297 132 111 109 104 99 94 100 102 104 105 95 98 112 114 109 100
253 255 246 230 217 213 214 207 207 214 216 211 201 196 195 196 196 195 198 196 193 192 188 186 189 189 188 187 187 194 191 184 192 205 202 190 198 210 194 190 204 197 193 198 206 208 196 196 195 183 197 201 193 201 190 185 193 188 195 182 154 153 152 169 206 239 266 299 315 4 90 108 97 83 75 79 89 107 112 99 97 103 116 120 111
280 264 250 236 221 213 214 209 206 212 216 217 212 204 198 202 202 195 198 196 192 192 187 187 193 191 188 189 189 194 194 187 190 199 202 195 197 204 199 193 198 200 199 199 201 206 199 194 196 196 202 200 195 195 186 193 199 187 195 186 161 161 164 182 202 233 250 268 304 321 354 86 93 77 74 68 50 55 85 100 111 104 112 131 133
288 257 236 236 230 218 217 214 209 212 215 214 216 223 214 203 204 201 201 196 189 189 185 187 193 190 185 188 191 193 194 188 188 198 201 197 195 197 202 197 193 198 205 205 202 206 203 195 199 201 202 199 201 203 189 189 198 197 199 186 173 168 172 193 189 203 231 228 273 299 329 353 65 58 67 78 38 28 34 53 112 115 106 131 164
295 271 260 264 270 250 229 221 215 215 216 212 213 224 229 225 220 210 203 196 191 187 185 189 191 188 185 185 190 194 193 189 189 198 200 198 194 195 201 200 194 193 202 212 208 207 205 196 200 203 202 198 199 207 198 189 188 198 210 196 185 176 175 199 186 179 221 230 237 263 301 306 309 344 335 130 29 13 12 12 60 121 121 120 169
316 316 310 298 296 283 249 228 220 217 216 214 212 217 229 238 241 228 211 202 198 191 187 192 193 189 188 186 190 195 193 190 193 198 199 200 195 195 200 201 199 193 196 212 211 206 204 197 202 208 206 198 195 206 204 195 188 195 214 207 196 185 177 201 195 176 209 231 223 219 211 256 280 312 304 292 350 349 350 358 345 330 158 143 146
329 338 342 340 303 274 251 233 221 218 219 215 213 215 221 229 237 237 233 220 204 197 192 194 195 191 188 188 190 194 193 191 195 198 198 198 196 196 199 199 201 196 196 208 211 205 199 195 205 211 209 199 193 207 211 202 196 199 213 214 205 192 183 199 199 179 194 220 226 218 192 202 233 273 283 284 312 315 321 341 331 318 247 178 153
351 346 339 326 278 252 228 219 214 218 222 217 214 215 216 223 230 232 237 231 210 202 197 195 198 193 189 190 191 192 192 192 195 198 198 195 194 197 198 198 200 196 197 205 209 205 197 195 207 212 209 200 192 206 218 211 205 204 210 216 209 196 192 197 198 189 191 208 226 225 199 186 200 223 244 261 285 292 302 321 325 319 274 206 158
356 351 340 278 247 239 218 205 203 211 218 216 214 213 211 218 224 223 234 238 220 211 202 196 198 194 192 194 194 194 193 192 195 199 198 194 193 197 200 201 199 196 198 205 211 209 198 196 208 210 204 202 194 201 220 220 215 210 209 218 212 198 200 200 198 197 196 206 218 224 215 192 191 200 216 244 265 271 290 304 322 318 246 194 122
356 352 345 300 245 226 218 211 203 203 209 212 211 212 211 213 217 220 232 239 230 226 217 206 199 192 197 201 201 201 196 194 197 199 199 195 193 196 200 201 198 198 199 204 211 209 195 194 208 209 202 203 197 196 218 221 211 201 200 212 212 199 204 206 200 200 203 208 211 222 227 211 203 196 199 229 253 258 273 283 319 312 213 176 356
353 343 349 332 265 233 226 221 214 208 207 210 212 214 214 215 218 227 237 236 232 232 230 224 214 199 201 204 207 210 200 196 199 199 199 197 192 192 200 203 201 202 202 203 206 203 195 196 206 205 201 206 199 194 213 212 199 199 199 204 204 199 207 211 206 206 210 211 208 218 230 222 216 202 196 215 234 251 262 258 307 291 254 283 279
356 337 337 330 272 241 232 225 221 218 213 212 215 216 216 218 220 226 239 237 230 230 229 224 221 219 215 208 208 213 205 198 199 200 200 198 193 190 199 207 206 205 205 204 204 202 199 199 205 205 200 205 200 193 209 210 199 202 202 201 202 197 204 215 214 213 214 214 209 212 224 230 227 214 209 210 211 230 249 246 247 254 269 281 266
4 351 347 314 285 258 244 239 231 226 219 214 215 219 220 222 223 222 230 237 231 227 228 222 217 222 227 220 211 212 210 203 200 202 202 201 197 191 197 207 209 208 207 205 204 205 202 199 205 209 202 202 201 194 204 212 206 205 199 194 198 196 200 217 222 220 218 216 213 211 218 228 229 219 221 217 207 215 232 233 228 241 258 263 251
346 346 355 317 297 282 266 257 244 234 226 219 219 225 229 228 227 223 219 224 226 225 225 223 222 222 226 228 222 216 214 209 204 204 205 205 202 195 197 205 209 210 210 208 207 207 205 201 204 209 205 201 200 198 204 213 212 213 209 196 185 197 209 223 229 227 224 221 218 215 219 225 226 222 222 222 217 214 215 213 207 220 242 252 248
343 328 312 274 287 284 273 265 254 243 235 229 226 231 237 234 228 222 216 213 217 222 222 220 224 226 224 225 223 221 218 212 210 208 205 205 204 199 197 203 209 209 208 208 209 208 206 206 205 208 207 200 199 202 206 214 213 213 219 212 199 203 216 217 217 220 223 225 223 217 220 226 227 228 226 225 224 216 210 206 206 219 233 240 241
345 334 313 260 246 265 267 261 257 251 241 234 231 232 237 238 231 226 224 219 216 216 216 218 222 223 221 221 222 225 225 222 220 214 209 210 209 202 195 200 209 210 206 206 208 210 208 209 208 209 207 198 199 204 205 212 215 210 213 216 209 205 213 213 212 211 208 214 221 219 221 227 230 232 231 228 226 219 214 207 210 225 232 231 228
345 339 331 306 265 251 259 261 256 253 247 237 231 230 230 233 235 233 229 225 222 216 211 212 215 217 220 223 222 224 227 227 225 217 212 214 215 208 198 199 207 209 208 206 205 207 207 207 210 210 207 200 200 204 205 211 216 211 208 210 206 203 213 223 220 218 209 205 211 215 218 226 233 235 233 231 229 225 221 212 211 222 232 237 230
341 340 336 326 303 268 254 263 260 253 251 243 233 229 229 229 232 234 230 228 228 223 217 213 211 215 217 217 218 222 226 226 225 221 215 214 218 216 206 200 203 208 212 211 206 205 205 205 210 210 207 205 203 201 203 212 219 215 211 211 206 204 215 224 221 221 215 206 207 213 215 218 226 234 235 234 233 230 228 221 209 212 228 241 241
338 340 332 326 321 302 272 263 267 261 254 250 240 231 232 233 230 232 235 237 235 227 221 218 215 214 214 211 215 223 228 227 225 223 218 215 217 219 214 204 200 206 215 217 210 206 205 205 208 211 209 207 207 203 200 208 223 222 219 218 210 206 215 221 221 219 216 219 222 225 223 217 220 228 231 232 233 229 228 230 214 206 221 236 247
329 332 330 327 323 319 304 277 269 273 266 258 251 241 235 236 234 232 236 239 240 234 228 226 223 218 214 212 216 225 233 232 226 224 220 216 216 219 220 214 204 204 211 218 213 205 206 208 207 209 212 210 209 208 202 202 220 224 222 223 212 208 214 216 217 216 217 228 234 234 231 224 226 231 234 235 234 230 227 229 228 219 220 230 244